Location: Beuvrequen
(50.8014°N, 1.6652°E)
Time: 03:23:55
(UTC+00:00)

Gbstr 26 Del rocket - Pass Details

Date: 16 October 2021
Orbit: 492 x 1263 km, 51.8° (Epoch: 28 November)

Event Time Altitude Azimuth Distance (km) Brightness Sun altitude
Rises 17:44:31 0° 281° (W) 3,647 8.8 -8.0°
Reaches altitude 10° 17:46:57 10° 281° (WNW) 2,803 7.9 -8.4°
Maximum altitude 17:53:53 89° 10° (N) 1,155 4.4 -9.5°
Enters shadow 18:01:31 12° 104° (ESE) 3,084 6.0 -10.7°
